loading
|
Showing default

EXPLORER 30, 1738

Orbit data source: Space-Track

EXPLORER 30, 1738 is a payload satellite owned by NRL (US) in LEO that was launched on Fri, 19 Nov 1965 UTC via an SCOUT X-4 launch vehicle from the Wallops Island (WLPIS). Payloads include a variety of satellites, spacecraft, and rockets equipped with specific instruments for various scientific and technological missions. These include communications satellites like Starlink; space stations such as the ISS; scientific satellites like the Hubble; Earth observation satellites from companies like Planet Labs, Umbra, and HawkEye 360; GPS; miniature CubeSats for education and research; and military/defense satellites.

Loading next visibility...
Next conjunction unknown
Loading greatness...
EXPLORER 30 details
Identifier
1738, 1965-093A
Orbit
LEO
Last TLE update16 hours ago
Origin
Flag of USNRL (US)
ManufacturerNRL
MissionCivil Astronomy
Bus & MotorNRL 24", Unknown motor
Mass57 kg wet, 57 kg dry
Launch date (UTC)
1965-11-19 (59 years ago)
Launch vehicle
SCOUT X-4
Launch site
Wallops Island (WLPIS)
Object type
Payload
Rocket body
Debris
Shape & HBRSphere, 0.61 m
Radar Cross Section0.292 m², Medium (>0.1 m² and < 1m²)

Expand to show TLE details & history

TLE from 16 hours ago
0 EXPLORER 30
1  1738U 65093A   24286.10762083  .00001088  00000-0  34744-3 0  9993
2  1738  59.7071 169.8883 0129345 190.2011 169.6399 14.41215158 88877
Epoch: 2024-10-12T02:34Z
Definitive object data (Epoch: 2024-10-12T02:34:58.439Z)
Latitude
Longitude109.9766°
Altitude846.795 km
Speed7.383 km/s
True Right ascension11h 19m 33s
True Declination0° 00' 00"
Sunlit
Object was in daylight at TLE epoch
Predictive object data (real-time)
Latitude-39.45958°
Longitude79.07425°
Altitude816.212 km
Speed7.419 km/s
Apparent Right ascension05h 45m 22s
Apparent Declination-57° 32' 00"
Sunlit
Object is in daylight
Predictive observer data (real-time)
Local Sidereal Time13:27:28
Azimuth224.168° SW
Elevation-45.955°
Doppler factor1
Orbital elements
Apogee846.007 km
Perigee661.512 km
Semi-major axis7,131.897 km
Eccentricity0.0129345
Inclination59.7071°
RAAN169.8883°
Arg. of periapsis190.2011°
True anomaly169.90227°
Mean anomaly169.6399°
Eccentric anomaly169.7715°
Mean motion3.60359 °/min
BSTAR0.00034744
Period99.9 mins
No data available
No data available
Other satellites on launch #93 in the year 1965 (1965-11-19 UTC)

EXPLORER 30 Visibility forecast

Observer location: 39.9160978°, -105.1181434

Span
Click to sort rows by Start time (UTC) header in descending order
Start Az.
Max El. time (UTC)
Max El. Az.
Max El.
End time (UTC)
End Az.
10 mins2024-10-12 19:24:34.574Z248.228° W2024-10-12 19:29:34.574Z322.366° NNW33.972°2024-10-12 19:34:34.574Z28.098° NE
5 mins2024-10-13 00:43:34.574Z357.777° N2024-10-13 00:45:34.574Z23.6° NE16.216°2024-10-13 00:48:34.574Z63.283° ENE
8 mins2024-10-13 02:26:34.574Z325.664° NNW2024-10-13 02:30:34.574Z88.701° E43.303°2024-10-13 02:34:34.574Z134.48° SE
7 mins2024-10-13 17:00:34.574Z158.55° S2024-10-13 17:03:34.574Z121.242° SE21.149°2024-10-13 17:07:34.574Z70.944° E
9 mins2024-10-13 18:42:34.574Z234.573° WSW2024-10-13 18:46:34.574Z290.413° WNW40.992°2024-10-13 18:51:34.574Z31.635° NE